DECAYED
Showing default

CONNECTA T2.1, 56210 (Decayed)

Orbit data source: Space-Track

CONNECTA T2.1, 56210 was a payload satellite owned by Plan-S (TR) in SSO that was launched on Sat, 15 Apr 2023 UTC via an FALCON 9 launch vehicle from the Air Force Western Test Range (AFWTR). Payload-class satellites include a variety of spacecraft equipped with specific instruments for various scientific and technological missions. These include communications satellites like Starlink; space stations such as the ISS; scientific satellites like the Hubble; Earth observation satellites from companies like Planet Labs, Umbra, and HawkEye 360; GPS; miniature CubeSats for education and research; and military/defense satellites.

Not visible in the next 10 days
Identifier
56210, 2023-054AJ
Orbit
Decayed
Country
Flag of UnknownUnknown / TURK
Related business
Manufacturer
Plan-S
Mission
Decayed Commercial Communications
Bus & Motor
CUBESAT 6U, Unknown motor
Mass
10 kg wet, ~10 kg dry
Launch date (UTC)
2023-04-15 (3 years ago)
Launch vehicle
FALCON 9
Launch site
Air Force Western Test Range (AFWTR)
Object type
Payload
Rocket body
Debris
Shape & HBR
Box + 2 Pan, 2.0 m
Radar Cross Section
0.080 m², Medium (>0.1 m² and < 1m²)

Expand to show TLE details & history
Last TLE update: 1 month ago

TLE from 1 month ago
0 CONNECTA T2.1
1 56210U 23054AJ  25281.50130722  .01407635  13028-2  17241-2 0  9995
2 56210  97.3048 196.6694 0006301 150.5393 209.6246 16.08301164140457
Epoch: 2025-10-08T12:01Z
TLE epoch observation values (Epoch: 2025-10-08T12:01:52.943Z)
Latitude
-0.00006°
Longitude
-1.17613°
Altitude
258.353 km
Speed
7.75 km/s
True Right ascension
13h 06m 40s
True Declination
0° 00' 00"
Sunlit
Object was in daylight at epoch
Visualization orbit readout
Latitude
Unknown
Longitude
Unknown
Altitude
Unknown
Speed
Unknown
Apparent Right ascension
Unknown
Apparent Declination
Unknown
Sunlit
N/A
Visualization observer readout
Local Sidereal Time
02:14:36
Azimuth
Unknown
Elevation
Unknown
Doppler factor
Unknown
Orbital elements
Apogee altitude
252.528 km
Perigee altitude
244.177 km
Semi-major axis
6,626.489 km
Eccentricity
0.00063
Inclination
97.3048°
RAAN
196.6694°
Arg. of periapsis
150.5393°
True anomaly
209.58893°
Mean anomaly
209.6246°
Eccentric anomaly
209.60676°
Mean motion
4.02363 °/min
Orbital period
89.47 mins
BSTAR
0.0017241
Loading maneuver chart data...
Computing Atmospheric mass density...

Documentation

Showing up to 5 results
|